Theta_e
354 353 353 351 350 350 348 350 346 341 338 337 336 333 331 331 330 331 331 332 333 333 333 333 332 332 332 333 334 338 342 344 342 338 334 331 332 333 335 336 336 337 336 335 339 341 342 340 340 342 342 342 342 341 342 342 342 341 341 340 339 339 338 338 337 336 336 335 336 336 335 334 335 335 334 332 330 332 330 329 330 332 334 332 330
353 352 353 351 348 348 348 350 346 340 337 338 337 335 333 331 331 331 332 333 334 334 334 333 332 330 330 329 329 331 333 335 334 333 332 332 332 332 335 336 337 336 334 337 340 341 340 341 340 342 342 342 342 342 342 342 341 341 339 337 335 334 333 334 335 334 334 334 335 334 333 334 335 335 334 330 329 331 328 328 332 334 332 330 329
352 353 353 350 346 346 347 348 346 340 336 339 338 336 333 331 330 331 332 333 334 335 335 334 332 331 329 328 327 327 328 329 330 332 334 336 336 336 339 338 338 338 338 339 341 341 340 340 341 341 342 341 342 342 341 341 340 339 336 332 330 329 329 332 334 334 333 333 333 333 332 332 333 334 334 332 331 330 327 329 332 331 330 329 329
352 353 353 350 346 346 347 348 347 341 338 339 337 336 332 331 331 331 332 333 335 335 336 335 334 332 330 328 328 328 329 332 332 334 336 339 339 339 341 339 339 340 341 341 341 342 340 341 341 341 342 341 341 341 341 340 338 335 330 326 325 325 327 331 332 333 333 332 332 333 332 332 333 332 333 332 331 328 328 330 331 329 328 329 329
352 352 352 351 349 348 347 349 348 344 339 338 337 336 334 333 332 332 331 332 334 335 336 336 335 333 330 328 327 329 331 334 336 337 338 339 340 340 341 339 339 341 340 340 340 341 341 340 341 341 342 342 341 341 340 336 333 329 325 323 323 323 325 326 327 327 328 329 331 333 331 332 333 331 333 332 330 329 329 330 330 328 328 329 329
352 351 350 350 349 348 346 348 347 345 340 338 338 336 336 334 332 332 331 332 333 335 336 336 335 332 329 327 327 328 329 332 337 339 339 339 340 340 340 340 339 340 340 341 341 341 340 340 341 342 342 341 342 341 337 330 326 325 324 324 325 325 326 325 324 323 326 330 331 331 331 332 334 332 331 332 331 330 330 329 329 328 329 329 329
352 351 350 348 349 348 346 348 347 346 342 338 338 337 337 335 333 332 331 332 333 335 336 336 333 331 328 328 328 326 325 328 336 339 338 339 340 339 340 339 339 340 340 340 340 340 340 340 341 342 341 341 342 339 331 326 325 326 328 328 329 330 330 328 328 327 329 332 330 330 331 332 334 333 330 331 332 331 330 330 330 328 329 330 329
352 351 350 349 349 347 346 347 347 346 344 341 339 339 338 337 334 333 331 331 333 335 336 335 333 330 328 328 328 326 325 328 335 340 339 339 339 338 339 340 339 337 338 338 338 340 340 340 342 341 340 341 340 335 328 327 328 329 331 331 332 332 332 332 332 330 332 331 330 329 330 331 333 333 329 331 333 330 330 330 328 328 330 330 328
352 352 350 350 349 344 346 348 346 346 346 344 343 342 341 339 336 334 333 333 334 335 336 334 332 330 329 329 328 326 328 330 335 338 338 338 337 337 338 340 338 336 337 338 339 340 340 341 342 341 341 341 339 331 327 329 330 330 331 331 332 333 333 333 333 332 332 331 331 330 329 331 332 333 330 332 332 329 330 329 327 328 330 328 326
352 352 350 351 349 343 346 346 345 345 345 345 344 344 343 342 339 337 337 337 336 337 337 334 332 330 329 330 329 330 335 336 336 336 336 335 335 336 338 340 340 339 340 340 341 341 341 341 341 341 340 338 333 328 328 330 330 331 331 332 332 332 333 333 333 333 333 332 332 332 330 330 331 333 331 332 332 331 330 329 328 328 327 325 324
351 351 350 352 347 343 345 344 344 345 343 344 344 343 344 343 342 340 339 339 338 338 338 335 331 330 330 329 330 335 339 340 338 337 336 336 336 336 339 341 340 340 340 341 341 340 341 341 341 339 334 329 327 329 331 331 331 332 331 331 331 330 330 331 334 333 332 332 332 333 331 330 331 332 330 332 333 332 331 328 327 325 325 325 325
352 351 350 350 344 342 345 343 343 344 343 343 343 343 343 344 343 342 339 339 338 338 338 336 332 331 331 329 332 337 339 339 337 336 335 337 338 338 340 340 339 339 339 341 341 340 341 340 339 333 325 323 326 331 334 333 332 331 329 329 329 329 328 330 334 335 333 333 332 333 333 332 333 332 329 332 333 332 331 329 328 326 326 327 325
351 351 349 350 345 341 343 341 341 343 343 343 343 343 343 343 343 342 341 339 338 339 338 337 332 331 330 329 333 336 336 336 335 335 334 338 339 339 340 339 339 338 339 340 340 340 340 340 336 327 324 326 328 331 331 330 330 329 329 328 327 328 327 331 336 337 335 335 335 334 334 334 333 332 330 331 333 332 331 330 329 327 328 328 326
351 350 349 350 347 341 341 341 342 342 343 343 343 344 343 343 342 341 340 340 339 339 338 338 333 331 331 330 334 336 335 333 332 334 334 337 338 339 339 338 339 339 339 339 339 340 339 339 336 328 326 328 330 330 329 329 329 328 328 327 327 328 328 334 337 336 336 336 336 336 334 334 333 332 331 331 333 332 331 330 329 328 328 328 326
350 351 349 349 348 344 342 342 344 344 344 343 343 343 343 343 341 340 340 340 340 338 338 338 333 331 332 332 336 338 336 332 330 331 334 336 337 338 339 338 339 338 339 339 339 339 338 338 336 332 328 328 330 330 330 329 327 327 327 327 328 328 329 335 338 335 336 335 334 336 334 334 333 332 331 331 332 333 331 330 329 328 327 328 327
349 350 349 348 347 346 343 343 345 344 344 344 344 343 343 343 341 341 341 340 340 339 339 338 333 331 332 333 337 339 338 335 329 327 330 334 335 335 337 338 338 338 338 338 338 338 339 338 335 334 331 329 328 328 328 327 326 326 327 328 328 329 329 333 338 337 337 336 334 335 334 334 332 331 331 331 333 333 331 330 329 329 328 328 328
349 349 349 348 346 346 345 343 342 342 343 343 343 343 342 342 341 341 341 341 340 340 340 338 334 331 333 335 337 338 338 336 330 328 330 332 334 334 335 337 337 337 338 337 337 338 338 338 336 333 332 329 326 326 326 327 327 326 327 328 327 329 329 330 338 339 337 338 336 334 334 333 331 330 331 332 333 332 331 330 329 329 328 328 328
350 349 349 348 347 346 346 344 342 343 344 342 343 342 341 341 341 341 341 340 340 340 340 338 335 332 334 336 336 337 338 337 332 331 333 334 334 333 333 335 336 336 337 336 335 337 337 338 337 335 334 331 327 326 326 328 328 327 327 327 327 328 327 329 336 337 335 338 337 334 334 331 330 330 331 332 332 333 331 330 330 329 328 328 328
349 349 349 348 348 347 346 345 345 346 345 344 345 342 340 340 340 341 340 339 338 339 339 338 336 333 334 336 336 337 339 340 335 332 334 335 335 334 332 333 336 336 335 335 334 334 335 336 337 336 335 333 329 327 326 327 327 327 327 327 327 326 327 331 336 334 333 337 337 335 333 330 330 330 330 332 333 333 331 330 330 328 328 328 327
348 348 348 348 348 348 347 346 347 347 346 346 346 345 341 340 339 339 339 338 338 338 337 338 336 334 334 336 336 339 341 341 338 335 334 334 335 336 333 330 332 334 334 334 334 334 333 333 336 335 334 334 331 328 326 327 327 327 328 327 326 326 330 333 334 333 334 335 337 337 333 330 331 329 330 333 333 333 331 329 330 329 328 327 326
348 348 347 347 347 347 348 347 348 347 346 345 346 346 342 340 340 338 338 337 337 337 336 337 336 335 336 337 338 341 343 342 342 340 338 337 336 334 332 330 329 330 331 331 333 334 333 332 333 334 334 332 331 329 326 325 327 328 328 327 327 329 331 332 333 334 335 335 337 336 332 330 331 329 331 333 333 332 330 329 330 329 328 327 326
347 347 347 347 346 346 348 349 348 346 347 346 345 346 343 342 342 340 340 338 338 337 338 340 339 340 339 340 342 343 344 342 343 342 341 341 339 335 332 330 329 330 330 329 331 333 334 331 331 332 332 331 330 331 329 326 326 327 327 327 328 331 331 332 333 334 335 336 337 334 330 330 331 330 332 334 333 332 331 330 329 329 328 327 326
348 347 347 347 346 347 348 348 349 347 347 346 345 345 344 344 344 343 343 341 341 340 342 343 341 343 343 343 344 343 343 343 343 342 341 341 340 338 335 332 330 330 331 330 328 329 332 329 328 331 330 329 330 333 333 330 328 327 327 329 330 331 331 332 333 333 335 336 337 334 330 330 331 330 331 335 333 332 332 330 329 329 329 328 326
349 347 347 347 346 347 348 347 348 347 346 346 345 345 345 345 345 345 344 343 343 343 344 344 342 343 344 345 345 344 344 343 342 340 340 340 340 338 336 336 334 333 332 332 331 328 327 327 328 330 330 330 332 333 332 331 331 330 329 330 331 331 331 332 333 333 334 337 337 333 331 330 330 329 331 335 333 332 332 331 330 330 328 328 327
350 348 347 347 347 347 347 347 347 347 346 345 345 345 345 345 345 345 344 343 343 344 344 344 343 342 344 345 344 344 343 342 342 341 341 341 341 339 337 338 338 337 336 337 338 333 329 330 330 330 332 333 332 332 332 331 331 330 330 331 331 331 332 332 333 333 334 337 337 332 331 330 329 329 331 335 334 332 332 332 330 330 328 327 328
350 348 347 347 348 348 348 347 347 347 346 345 345 344 345 345 345 346 344 343 343 343 344 343 343 343 343 344 344 344 343 342 341 341 342 341 340 340 339 339 339 339 338 338 339 337 334 333 332 332 332 333 332 332 332 331 330 329 330 331 331 332 332 332 332 333 334 337 337 334 332 330 328 328 331 333 333 333 333 332 331 330 329 327 326
350 349 347 348 348 349 348 347 347 347 347 346 345 345 345 345 345 346 345 344 343 343 343 342 342 343 342 343 343 343 343 343 342 341 341 342 341 340 340 340 339 339 339 339 339 338 336 333 333 332 332 331 331 331 330 330 329 328 329 331 332 332 332 332 332 333 334 336 336 333 332 331 329 327 329 329 331 333 333 333 331 330 329 328 327
350 348 347 348 349 349 348 348 348 347 347 346 346 345 345 345 345 345 345 344 344 343 343 343 343 343 342 342 342 342 343 343 342 340 340 341 341 341 340 340 340 339 339 339 339 339 337 335 335 332 331 331 330 330 328 328 328 328 330 331 331 332 333 333 333 333 334 335 336 334 332 331 330 327 328 326 327 333 334 333 332 331 330 329 327
348 348 348 348 348 349 349 348 348 348 348 347 346 345 345 345 345 344 344 344 344 343 343 343 343 343 342 342 342 342 342 342 341 341 341 341 341 342 341 340 340 339 339 338 339 339 338 337 337 335 332 331 330 330 328 328 328 329 330 330 331 332 333 333 333 333 334 335 335 337 333 331 331 329 329 327 324 329 334 333 332 331 330 330 328
348 349 348 347 348 348 348 348 348 348 348 347 346 345 344 344 345 344 344 344 343 343 342 343 342 343 343 342 342 342 342 343 342 342 341 341 341 341 341 341 341 340 339 339 338 338 339 339 339 338 336 333 331 330 330 329 329 330 330 330 332 332 332 333 333 333 334 334 335 337 335 331 331 331 330 328 324 325 332 334 332 331 331 330 330
348 348 347 346 346 346 347 347 347 347 348 348 347 346 345 344 345 344 344 344 344 343 343 343 343 342 343 342 342 342 342 343 343 343 342 341 341 341 341 341 341 341 340 340 339 339 339 339 340 339 339 337 334 332 330 329 329 330 330 331 331 332 333 333 333 333 333 333 335 337 337 333 331 331 330 328 325 322 328 334 333 332 332 331 331
348 347 345 344 344 346 347 347 347 347 347 348 348 347 345 343 344 344 344 344 344 344 343 343 343 343 342 342 342 342 342 343 343 343 343 342 342 342 341 341 341 341 340 340 340 339 339 339 339 340 340 340 339 337 334 331 331 330 330 331 331 332 332 332 333 333 333 334 335 335 338 337 333 331 330 328 327 322 325 333 334 333 332 332 331
348 347 345 344 344 345 346 347 347 347 347 347 347 346 346 344 344 344 344 344 344 344 344 343 343 343 342 341 342 342 341 342 342 342 342 342 342 342 341 341 341 341 341 341 340 340 341 340 340 339 340 341 340 340 338 335 332 331 331 331 331 331 332 332 333 333 333 333 335 335 335 338 339 335 331 328 327 325 323 330 335 334 333 333 332
346 345 344 344 343 344 344 345 346 347 346 345 345 345 345 344 343 344 344 344 344 345 344 344 343 342 343 343 342 342 341 341 341 341 342 342 342 342 342 341 341 341 340 341 341 341 340 340 339 339 340 339 339 340 340 337 333 332 331 330 331 332 331 332 332 333 334 333 335 336 334 336 341 340 337 332 328 326 323 327 333 334 334 334 333
345 344 343 343 343 343 342 343 344 345 344 344 344 344 343 343 343 344 344 343 344 344 345 344 343 343 343 343 343 343 342 341 341 342 341 342 342 341 341 341 340 340 339 340 340 340 340 340 339 339 339 340 338 339 340 338 335 333 332 332 332 333 332 332 333 332 332 334 334 335 336 336 339 342 341 339 335 330 325 324 329 332 334 334 334
344 343 343 343 343 342 342 342 343 343 343 342 343 343 343 342 342 343 343 343 344 343 344 344 344 344 343 343 343 344 343 342 342 342 341 342 342 341 341 341 341 340 339 339 338 338 339 339 339 339 339 339 339 338 339 339 339 336 334 333 332 333 333 332 333 333 332 333 334 334 336 336 338 342 341 341 339 336 331 325 324 328 333 334 334
344 343 343 343 342 341 342 341 341 342 341 342 342 342 342 342 342 342 342 342 343 343 343 343 343 343 343 343 343 343 343 342 342 342 342 341 341 341 341 341 342 340 339 338 338 337 338 339 339 339 339 339 339 339 339 339 339 339 337 334 331 332 332 333 333 333 333 333 333 334 336 336 338 341 341 339 338 337 336 330 325 324 329 332 334
343 342 342 341 341 341 341 341 341 341 341 341 342 342 342 342 342 341 342 342 342 342 343 343 343 343 343 343 342 343 342 342 342 342 342 341 341 341 342 342 342 341 339 338 338 337 337 338 340 339 339 339 338 339 339 339 340 340 339 336 333 332 331 332 333 333 333 333 332 333 335 337 338 340 341 340 338 338 338 336 330 325 325 327 330
341 341 340 340 340 340 340 341 341 341 341 342 341 342 342 341 342 341 342 341 342 343 342 343 343 343 343 343 343 343 342 342 342 342 341 341 341 341 342 342 341 341 340 340 339 338 337 339 340 339 339 338 337 338 339 340 340 340 340 339 336 334 332 331 333 333 333 332 331 333 334 337 338 339 340 340 340 339 338 337 335 331 328 326 325
340 339 338 339 340 341 340 339 340 341 341 342 342 342 342 342 342 342 342 342 342 342 342 342 343 343 343 343 343 342 342 342 341 341 340 340 340 340 341 341 341 341 340 340 339 338 338 338 338 339 338 337 337 338 338 339 340 340 340 340 339 337 334 332 331 332 333 331 332 333 334 335 337 339 340 340 340 340 340 338 337 336 334 333 330
338 338 338 338 339 339 338 338 338 339 340 341 340 340 341 342 342 342 342 342 341 341 341 342 342 342 342 342 342 341 341 341 341 341 340 340 340 341 341 341 341 340 339 339 339 338 339 337 337 338 337 337 337 338 338 338 339 340 340 340 339 338 334 332 331 331 331 331 332 334 334 335 337 339 339 340 340 341 341 339 338 337 336 337 336
337 337 337 337 337 338 337 338 338 338 339 339 340 340 340 340 340 341 340 340 340 340 340 340 340 340 340 341 341 340 340 340 341 340 340 340 340 341 341 341 341 340 339 339 339 338 338 337 337 337 337 337 338 337 337 338 339 339 339 340 339 337 334 333 331 330 330 331 332 334 335 335 337 338 339 340 341 341 341 340 339 338 338 337 337
337 337 336 336 337 337 337 337 337 337 337 337 337 337 338 338 338 338 338 338 338 338 338 339 339 339 339 339 340 340 340 340 340 340 340 340 340 340 340 341 341 340 339 339 339 338 337 336 336 337 337 337 337 336 336 338 337 336 338 338 338 338 336 334 332 330 331 332 333 334 336 337 337 338 340 340 341 341 341 341 340 339 339 339 338
338 337 337 337 336 337 336 335 335 335 335 335 335 335 335 335 335 336 336 336 336 336 337 338 338 337 338 338 338 338 338 338 339 339 339 340 339 340 340 340 340 340 339 339 339 338 337 336 336 338 338 337 336 337 337 339 337 336 337 338 338 338 337 335 334 331 331 332 334 335 337 337 338 339 341 340 341 341 341 341 342 341 340 340 339
335 335 334 333 332 332 331 330 330 330 330 331 332 332 333 333 333 333 333 333 333 333 334 335 335 335 335 336 336 336 336 336 336 337 337 338 339 340 340 340 340 340 339 339 338 338 337 337 337 338 338 337 337 337 338 339 338 337 335 336 337 337 336 335 334 332 332 333 335 336 337 336 338 341 342 342 342 342 342 342 342 341 341 340 339
327 327 326 325 323 323 323 322 322 321 322 324 326 327 327 327 327 326 326 327 327 327 328 329 330 331 332 332 333 334 334 334 335 335 335 336 337 338 340 340 340 340 340 340 339 338 338 338 338 338 337 338 338 337 338 337 338 337 335 335 336 337 338 337 336 337 337 336 333 335 337 337 338 342 343 343 343 344 343 343 342 342 341 340 339
321 320 319 317 316 316 317 317 316 315 316 316 319 321 322 321 321 320 320 321 321 322 323 324 324 325 326 327 329 330 331 332 333 334 334 335 336 336 337 338 339 339 340 340 340 340 339 339 338 338 337 338 338 338 337 336 336 337 336 337 336 336 339 338 337 338 338 336 335 337 339 337 336 339 341 343 344 344 343 342 343 342 342 340 339
321 320 318 317 315 314 313 312 312 313 313 312 314 316 317 318 318 317 317 317 317 318 318 318 318 319 320 321 321 323 325 328 331 332 333 334 334 335 336 337 338 339 338 339 340 339 339 339 339 338 338 337 337 337 338 337 336 336 337 337 336 337 338 337 337 338 337 337 338 340 339 337 338 339 341 343 343 343 343 342 342 342 341 341 340
321 319 318 316 314 313 312 313 313 313 311 310 312 313 315 316 316 316 316 315 315 315 315 314 315 315 316 315 314 316 317 321 325 327 329 331 332 334 335 335 337 338 338 338 339 339 339 339 339 339 339 338 336 337 338 338 336 335 337 338 336 337 337 336 338 340 337 337 339 338 336 337 339 340 341 343 343 343 342 342 342 341 341 341 341
318 317 316 316 316 317 317 316 315 313 311 310 312 313 315 316 316 315 315 315 315 316 315 316 316 316 316 315 314 313 313 314 315 318 321 324 327 330 332 334 335 336 336 337 337 338 338 338 338 338 339 338 337 337 338 338 336 335 336 337 336 336 336 337 339 340 337 336 337 337 336 337 338 339 342 342 342 342 341 341 342 341 341 341 341
318 318 317 318 318 319 318 316 314 312 311 311 312 314 315 316 315 315 315 314 315 315 316 316 316 316 316 315 315 315 314 313 312 313 314 315 318 322 325 328 331 333 335 336 336 337 337 337 338 338 338 338 338 338 337 337 337 335 335 337 336 335 335 337 338 338 338 338 338 337 335 335 335 337 341 341 340 340 340 341 341 341 341 341 341
Wind_Speed
10 14 16 18 18 16 15 14 16 18 19 20 19 19 18 18 17 17 16 16 16 16 15 15 14 13 12 11 10 10 9 9 8 8 7 7 7 8 9 9 8 7 7 7 5 4 3 3 3 3 3 3 5 9 10 11 11 10 10 9 9 9 8 7 7 8 7 7 6 6 5 7 9 9 8 7 5 4 4 3 3 4 6 10 10
13 15 16 18 18 16 16 14 16 19 19 19 19 18 18 18 18 17 17 16 16 16 15 15 14 13 12 11 11 10 10 9 9 9 8 8 8 8 9 8 7 7 7 6 5 3 3 2 2 2 3 5 8 12 12 11 11 10 10 9 8 8 8 7 7 7 7 7 5 5 6 7 9 9 7 7 5 4 4 4 3 5 8 9 8
15 15 16 19 19 17 17 15 16 19 20 19 18 18 17 17 17 17 16 16 16 16 15 15 14 13 12 12 11 11 11 10 10 10 9 8 8 9 8 7 7 7 6 5 4 3 2 2 2 1 3 6 8 12 12 11 11 9 8 8 8 8 9 9 9 8 7 7 5 5 7 7 8 8 8 7 5 5 5 5 5 6 8 7 6
14 14 15 18 18 17 17 15 15 17 19 18 18 17 17 16 16 15 15 15 15 15 15 14 13 12 12 12 12 12 12 12 12 11 10 9 8 10 8 6 7 7 6 5 4 3 1 2 2 2 5 7 8 11 12 11 10 8 7 8 8 9 10 10 10 8 7 8 7 6 7 7 6 6 7 6 5 5 5 6 6 6 7 6 5
13 13 15 16 16 16 15 14 13 14 16 17 17 16 15 15 14 14 14 14 14 14 13 12 12 11 11 11 12 12 12 13 13 12 12 11 10 11 8 6 7 6 5 4 4 3 3 2 1 3 6 8 10 11 12 11 9 7 8 9 10 10 11 10 9 8 8 10 7 5 5 6 6 6 7 6 5 5 5 7 6 6 7 7 6
12 13 15 15 15 15 15 14 13 13 15 16 16 15 15 14 14 13 13 13 12 12 11 10 10 10 11 11 11 11 11 12 13 11 11 12 11 12 9 7 7 6 4 3 2 3 3 2 2 5 7 10 11 11 11 10 9 9 11 11 11 11 12 11 11 10 9 9 8 5 4 5 6 7 7 6 5 4 6 7 5 5 6 6 6
14 13 15 15 15 16 15 15 14 14 15 16 16 15 14 14 13 12 12 12 11 10 10 10 10 10 10 10 10 9 9 11 12 10 9 11 11 10 9 7 7 6 5 3 3 3 2 2 5 7 10 11 11 11 11 11 11 12 12 12 11 11 11 11 11 10 7 4 5 5 4 5 6 8 7 7 5 4 6 7 5 5 7 6 5
15 14 14 14 15 17 17 15 15 15 15 16 15 14 13 13 13 12 12 11 10 9 9 9 9 9 9 9 8 8 8 10 11 9 9 10 10 9 7 6 5 5 4 3 3 2 3 5 8 10 12 12 12 11 11 12 12 12 11 10 9 8 8 8 10 11 7 4 4 5 4 5 6 6 7 7 3 4 7 6 4 4 7 6 3
14 15 14 14 16 17 17 15 15 15 15 15 13 12 11 12 13 12 11 10 10 9 9 9 9 9 8 8 8 8 9 9 9 8 8 8 7 6 7 6 4 4 3 3 3 4 7 9 11 12 13 12 11 11 12 12 12 11 9 7 6 6 5 5 6 7 7 5 5 5 4 4 4 5 7 7 2 4 7 4 4 5 6 4 2
14 14 13 14 17 18 18 16 16 15 15 15 13 12 11 10 11 11 10 10 10 9 9 8 8 8 7 7 8 9 10 9 8 7 6 6 6 6 7 5 3 5 4 5 7 10 11 12 12 12 11 10 9 11 12 12 10 9 7 6 5 5 4 4 5 4 4 4 5 5 4 4 4 4 5 6 4 4 5 3 4 4 2 2 2
14 13 13 15 17 19 19 17 17 16 15 15 14 13 12 11 11 11 11 10 10 9 9 8 8 7 7 7 8 10 9 8 8 6 5 6 6 6 7 5 4 8 7 8 11 13 13 12 12 11 9 8 10 13 13 11 9 8 6 6 4 4 4 4 3 3 2 2 3 4 5 5 4 3 2 5 5 4 5 4 3 3 2 3 4
15 14 15 17 18 19 19 18 18 17 16 16 16 15 14 13 13 12 12 12 11 10 9 8 8 7 8 8 9 10 7 8 8 6 6 6 6 6 6 4 5 8 8 10 12 12 12 12 12 9 8 9 12 14 12 10 8 6 5 4 3 4 4 4 2 1 2 1 1 2 3 4 4 3 1 4 6 5 4 4 2 2 4 6 6
16 15 17 19 18 20 20 18 19 18 18 17 17 16 15 15 14 13 13 13 12 11 10 9 9 8 8 9 9 8 7 8 8 7 7 8 7 5 5 4 6 8 8 11 12 11 11 11 11 9 10 11 12 12 10 8 7 5 4 3 3 4 5 5 3 2 2 2 0 1 2 3 4 4 3 4 6 6 5 4 4 4 6 6 6
18 17 18 19 18 19 20 19 19 19 19 18 17 16 16 15 14 14 14 13 12 11 11 10 9 9 9 9 9 7 6 7 7 8 8 8 7 5 5 4 6 9 9 10 11 11 12 11 10 10 11 11 11 10 8 7 6 4 2 2 3 4 5 5 4 3 3 3 1 1 2 3 4 5 3 5 7 6 6 5 5 5 5 6 6
17 17 16 17 17 17 17 18 18 18 17 17 16 15 15 14 13 13 13 13 12 11 10 10 10 10 10 9 8 6 5 5 6 8 8 8 7 5 5 5 5 7 8 9 9 10 11 11 11 10 10 10 9 9 7 7 6 3 2 1 2 4 4 3 4 3 4 4 3 0 2 3 5 5 4 6 7 7 6 5 5 5 5 6 6
15 15 14 14 16 15 14 14 16 16 15 15 15 14 13 12 12 11 11 11 11 11 10 9 9 10 11 9 8 6 4 4 5 7 8 9 7 6 5 5 5 5 6 8 8 9 9 10 10 10 10 9 9 8 7 6 5 4 2 1 1 3 3 3 5 4 4 4 4 1 2 3 5 5 5 6 8 8 7 5 5 5 5 6 7
15 14 14 14 14 13 12 12 12 13 13 13 13 12 11 10 10 10 10 10 10 10 9 8 8 9 10 9 8 7 5 4 4 5 6 7 7 7 7 6 5 5 5 6 7 8 8 8 9 10 10 10 9 8 7 6 6 5 3 1 1 2 3 4 5 5 3 4 4 2 3 3 5 6 7 6 8 9 7 6 6 6 5 7 7
16 15 15 15 15 14 14 14 12 12 12 11 11 10 10 9 9 9 9 9 8 7 7 6 6 6 8 8 7 6 5 3 4 5 5 5 5 6 8 7 6 6 5 4 4 5 7 8 9 9 9 10 9 8 7 7 6 5 3 2 1 3 4 4 5 4 4 4 3 2 1 3 5 6 8 7 8 9 7 6 7 6 6 8 6
16 16 15 15 16 16 17 16 15 15 14 13 12 10 10 9 8 9 8 8 8 7 6 5 5 5 6 6 6 5 4 4 3 4 5 5 4 4 6 8 7 7 6 5 4 4 4 6 8 8 8 9 9 8 8 7 7 6 4 3 2 2 4 4 4 4 4 3 2 2 0 4 5 7 8 8 8 9 7 7 7 7 8 8 6
16 16 15 14 14 15 16 15 16 16 15 14 14 12 11 10 9 9 8 8 7 6 6 5 4 5 6 6 5 5 4 3 2 3 4 4 5 4 5 7 8 8 7 6 6 5 4 5 6 7 7 9 9 9 9 8 7 7 6 5 3 2 3 4 3 3 3 3 2 1 1 3 5 7 9 8 8 8 7 7 8 8 9 8 6
14 14 14 14 13 13 13 13 14 15 14 14 14 14 12 11 11 10 9 9 8 7 6 6 5 6 7 6 6 5 5 4 3 3 3 3 4 5 4 5 7 8 7 7 7 7 6 5 6 6 7 9 10 9 9 8 8 8 7 6 3 3 3 4 3 2 2 2 2 0 3 3 5 8 8 8 7 8 8 8 9 9 9 8 7
13 13 12 14 13 13 13 13 14 14 14 14 14 14 13 13 12 12 11 9 9 8 7 7 7 7 8 7 6 6 6 5 4 4 4 4 4 3 3 4 5 6 6 6 6 7 7 7 7 7 8 9 10 9 8 8 9 9 8 6 4 4 4 3 4 2 2 1 2 1 2 3 5 8 9 8 7 8 9 9 9 10 9 9 7
13 12 12 13 12 12 12 12 13 13 14 13 13 13 14 14 14 14 13 11 10 9 9 9 8 8 8 8 7 6 6 5 5 6 5 5 5 5 3 3 4 5 5 5 5 6 7 8 9 8 7 8 9 9 8 8 9 9 8 7 6 5 4 4 4 2 1 1 1 2 2 2 4 7 9 8 8 8 9 9 10 10 9 8 8
12 12 12 13 11 10 11 11 11 12 12 12 11 12 13 14 14 14 14 13 12 11 10 10 9 8 8 7 6 6 6 6 6 6 5 5 5 6 5 4 4 5 6 5 5 5 5 7 9 8 8 9 10 9 9 9 8 8 8 7 6 5 4 5 4 2 1 1 1 2 2 2 4 7 9 8 9 9 9 10 10 10 8 8 8
12 11 11 12 11 9 9 10 10 10 10 10 11 11 12 12 11 11 11 12 12 11 10 10 9 9 8 7 6 6 5 5 5 5 5 5 5 6 6 6 6 6 6 6 6 5 5 7 8 8 9 9 10 9 9 8 8 8 7 7 6 5 5 5 4 3 2 0 1 2 3 2 3 6 8 9 10 9 10 10 10 10 8 8 9
11 10 10 11 10 9 9 9 9 9 8 8 8 9 10 10 9 10 9 9 10 10 10 9 9 9 8 7 6 6 6 5 5 6 6 5 5 6 7 6 7 7 6 6 6 5 6 7 7 8 9 9 9 9 8 8 8 8 7 7 6 5 5 5 4 3 3 2 2 3 3 3 3 6 8 9 10 10 10 11 10 10 9 8 9
10 10 9 10 9 9 8 8 9 9 8 7 6 7 9 8 9 10 10 9 9 9 9 8 8 9 9 8 7 6 6 6 5 6 6 6 6 6 7 7 7 8 6 6 6 6 6 6 6 7 8 8 8 9 9 9 9 8 8 7 6 6 5 5 4 4 3 3 3 4 3 3 4 5 7 9 11 11 11 11 10 10 9 9 9
10 10 9 8 8 7 7 7 8 8 8 7 6 6 6 7 7 9 9 9 8 8 8 8 8 8 9 8 8 7 6 6 6 6 6 7 7 7 7 7 8 8 7 7 7 6 6 6 6 7 7 8 9 9 9 10 9 9 8 7 7 7 6 6 5 5 5 4 4 5 4 3 4 5 6 8 10 12 11 11 11 10 10 9 9
10 11 9 8 6 6 7 7 7 6 6 6 6 5 5 6 6 7 7 7 7 6 7 8 8 8 9 9 9 8 7 6 6 6 6 7 7 7 7 8 8 9 8 8 9 8 7 7 7 8 8 9 9 9 10 10 10 10 10 9 8 7 7 6 6 6 6 5 4 5 6 4 5 6 6 7 10 12 13 12 11 11 11 10 9
11 10 9 8 6 7 8 8 8 7 6 5 5 5 4 5 5 6 6 7 7 6 7 7 8 8 9 9 9 9 8 6 6 6 6 7 7 7 8 8 9 9 9 10 10 10 9 9 9 9 9 9 10 10 11 11 10 11 11 10 9 8 8 7 7 7 7 6 4 5 8 7 6 7 7 7 9 12 14 14 13 12 11 11 10
11 10 8 7 6 6 8 8 8 7 6 6 5 4 3 4 4 5 6 6 7 6 7 7 7 7 8 8 8 8 8 7 6 6 7 7 7 8 8 8 9 9 10 11 11 11 11 11 11 11 10 10 10 10 11 11 11 11 11 11 10 9 9 8 8 8 7 6 5 5 8 9 8 8 8 8 9 12 13 15 14 13 13 12 12
11 10 8 8 6 6 6 6 6 6 6 6 5 4 3 3 3 4 5 6 6 6 7 7 7 7 7 7 7 8 8 8 8 8 8 8 8 8 8 8 9 9 10 11 11 11 12 12 12 12 12 11 10 10 10 11 12 12 12 12 12 10 10 9 9 9 8 7 6 6 7 8 9 9 10 9 10 11 13 15 15 14 14 13 12
11 10 9 8 7 6 6 5 5 6 6 6 5 4 3 3 4 5 5 5 5 6 7 7 7 7 7 7 7 7 8 9 10 10 10 10 10 9 9 9 9 9 10 10 11 12 12 12 13 13 13 13 12 11 11 11 12 12 12 13 12 12 11 10 10 9 9 8 7 7 7 8 9 10 10 11 11 12 13 15 16 16 15 15 13
11 10 10 9 7 7 6 5 5 7 6 5 4 4 3 3 4 4 5 5 5 6 6 7 7 7 7 6 7 7 7 8 9 10 11 12 12 11 10 10 10 10 10 11 11 11 12 12 13 13 14 15 14 13 12 12 12 12 13 13 13 13 12 11 11 10 10 9 8 7 7 8 9 10 10 12 13 13 13 14 16 17 16 16 14
12 11 10 10 8 7 6 6 6 6 6 5 5 4 2 2 3 3 3 4 4 5 6 6 7 7 7 7 6 7 7 8 8 10 12 13 13 12 11 10 10 10 11 11 11 12 12 12 13 13 13 14 15 14 12 12 12 12 12 12 12 12 13 13 12 12 11 10 9 8 8 8 10 11 11 11 12 13 14 15 16 16 16 16 15
12 12 11 10 9 8 7 7 7 7 6 6 5 4 3 2 2 2 2 2 3 4 5 6 6 6 6 6 6 6 7 8 8 9 11 12 13 13 12 10 10 11 11 11 11 12 12 12 12 12 13 14 14 14 13 12 12 12 12 12 13 13 13 13 13 13 12 11 10 9 8 9 10 11 11 11 10 11 13 15 16 16 16 17 16
12 12 11 11 10 9 9 8 8 7 7 7 6 5 4 3 2 2 2 2 3 4 5 5 6 6 6 7 7 7 7 8 8 9 11 12 13 13 11 10 10 12 11 11 12 13 13 12 12 12 13 14 14 13 13 13 13 13 12 13 15 14 13 13 13 13 12 12 11 10 9 10 11 11 12 11 10 10 11 13 15 15 16 17 16
13 12 11 11 10 9 9 8 8 8 7 7 6 6 5 4 3 2 1 2 3 3 4 4 6 7 7 7 8 9 9 9 9 9 10 12 13 14 11 10 11 11 11 12 14 14 14 12 12 12 13 14 14 13 13 13 14 13 13 14 15 15 15 15 14 14 13 13 12 11 10 10 11 11 12 11 11 10 10 11 12 15 16 17 18
13 13 12 11 10 10 10 9 9 8 7 8 7 7 6 5 3 2 0 1 2 3 3 4 6 6 7 8 9 9 9 9 10 10 10 11 12 13 12 11 11 10 10 12 14 14 15 14 13 13 14 15 15 14 13 13 14 14 13 13 15 15 15 15 15 15 15 14 12 10 10 10 11 11 11 11 10 9 10 9 10 13 16 17 17
14 13 12 12 11 10 10 10 9 8 8 8 8 6 6 5 3 1 1 1 1 3 4 5 6 6 8 8 9 10 9 10 10 9 10 10 12 13 13 12 12 12 11 12 13 13 15 15 14 15 16 15 15 15 14 14 14 14 13 14 15 14 14 16 17 17 16 15 13 11 12 12 11 11 11 10 10 9 9 9 9 11 13 14 14
15 14 13 12 11 11 11 11 10 8 8 7 7 6 5 4 3 1 1 2 2 4 5 5 6 6 7 8 9 10 10 10 10 9 11 11 11 11 13 14 13 13 13 12 13 14 15 16 15 16 16 15 15 15 14 14 13 12 12 14 16 16 16 16 18 19 18 16 15 13 13 13 12 12 11 10 10 10 9 9 9 9 10 11 12
15 14 14 14 13 12 12 12 10 8 7 7 6 5 4 3 1 1 2 3 3 4 5 5 6 7 8 8 9 10 10 11 10 10 12 12 12 12 13 14 14 14 14 14 17 17 16 16 17 18 16 15 15 15 14 13 13 12 11 11 12 15 16 16 18 20 20 18 16 14 14 14 13 12 11 10 10 10 10 10 10 9 9 10 11
14 13 13 13 12 11 11 11 9 8 7 6 6 5 4 3 2 1 1 2 3 4 4 5 6 6 7 7 7 8 8 9 9 10 11 12 13 14 14 15 15 16 15 17 20 19 17 16 17 18 16 15 16 15 15 14 14 13 11 9 8 8 11 13 17 21 21 19 18 16 15 15 15 13 11 11 10 11 11 10 10 10 10 10 10
11 10 10 9 9 10 10 10 9 7 6 6 6 5 5 4 3 2 2 1 1 3 4 4 5 6 6 6 6 6 7 8 9 10 11 11 13 14 14 15 15 15 15 17 20 19 18 17 17 18 17 16 16 15 15 15 15 13 8 7 7 7 7 9 13 19 21 20 19 18 16 16 15 14 12 11 11 10 10 11 11 11 11 11 11
9 8 8 8 9 10 10 10 9 8 7 7 6 6 5 4 3 2 2 2 2 3 4 4 5 6 7 7 8 8 9 10 11 11 12 12 12 12 13 14 14 14 14 17 19 19 18 17 17 19 19 17 16 14 14 14 16 16 12 9 7 6 7 8 10 14 18 20 20 18 17 17 15 14 13 12 11 11 10 11 11 11 11 12 12
9 8 8 9 10 10 10 9 8 8 7 8 8 7 7 6 5 4 4 4 4 4 4 5 6 6 7 8 8 9 9 11 12 12 13 13 13 13 13 13 14 14 14 15 17 18 17 17 19 20 19 17 16 16 14 13 15 19 21 19 14 9 5 6 8 6 8 15 19 19 18 18 16 15 14 13 12 12 11 11 12 12 12 12 13
9 8 8 9 10 10 9 8 8 7 7 8 9 8 7 6 6 5 5 4 4 4 4 4 5 6 7 8 8 8 9 10 10 11 12 13 13 14 14 14 14 15 15 15 15 17 18 18 18 19 18 16 16 17 15 14 15 18 22 23 22 18 8 6 9 4 2 9 16 19 19 18 17 16 14 13 13 12 12 12 12 12 12 12 13
8 7 8 8 9 9 9 8 8 7 8 10 10 9 7 6 6 5 5 4 4 3 3 4 4 5 6 7 7 8 9 9 10 11 11 12 12 13 14 14 14 14 15 16 16 17 17 17 16 17 17 17 18 17 16 16 16 16 16 18 21 22 16 14 15 9 4 7 10 14 17 17 17 16 14 13 13 13 12 13 13 13 13 13 13
7 7 7 8 8 8 8 8 7 7 9 10 10 9 8 7 6 5 5 4 3 3 3 3 3 4 4 5 6 7 8 9 10 11 12 12 12 13 13 13 13 13 14 15 16 17 17 17 16 15 16 18 19 18 17 18 18 17 16 15 18 20 19 19 17 10 7 7 6 8 12 14 15 15 15 13 12 13 13 13 14 14 14 14 13
7 7 7 6 6 6 6 6 6 7 8 9 9 8 7 6 5 5 4 3 3 2 2 2 3 3 4 5 5 6 6 7 8 10 11 12 13 14 14 14 13 13 14 16 16 16 17 17 17 16 16 17 18 18 19 19 19 20 18 16 16 17 15 16 15 11 8 11 9 8 11 12 11 13 15 14 13 12 13 13 13 15 15 14 14
6 6 6 5 5 5 5 6 6 7 7 7 7 6 5 4 4 3 3 3 2 2 2 3 3 4 4 5 5 6 6 6 7 8 10 11 13 14 15 15 15 14 14 16 16 16 16 16 16 17 17 17 18 18 19 20 21 22 21 19 18 17 15 14 15 16 12 10 9 7 10 13 12 12 14 14 13 12 11 12 13 14 15 14 14
Wind_Direction
154 151 148 157 153 151 152 153 161 153 151 151 150 148 145 143 141 140 138 133 129 125 120 119 118 120 123 126 131 132 136 135 135 131 127 123 119 120 119 121 125 129 132 138 138 142 147 125 122 129 130 121 122 120 114 115 115 109 107 101 95 94 91 89 87 88 91 89 87 96 104 112 109 99 93 80 81 105 106 98 90 107 103 94 88
151 150 148 158 155 152 152 155 161 156 156 154 152 149 148 147 145 143 138 134 129 125 121 119 118 118 120 124 128 131 134 136 133 125 120 114 117 118 121 126 128 133 133 138 142 154 152 128 154 166 132 125 128 122 118 117 115 108 105 101 95 93 92 101 104 97 95 100 102 84 85 104 103 97 91 72 76 104 109 107 97 103 96 86 87
147 150 151 160 158 154 154 156 161 162 160 156 153 150 150 148 146 143 139 137 132 127 124 121 119 119 121 123 126 130 130 131 127 123 123 124 128 125 130 140 138 138 137 141 147 166 151 144 197 177 130 126 123 120 123 119 112 109 106 100 91 87 86 94 98 97 103 113 117 87 80 95 98 99 93 79 91 102 97 102 92 84 88 85 90
142 144 151 159 156 151 153 154 157 162 157 154 152 149 149 147 146 144 143 140 136 132 127 124 120 120 122 124 126 128 128 127 122 124 133 138 138 134 141 144 140 143 146 156 160 169 158 184 225 155 133 121 119 120 121 113 111 115 107 100 95 91 88 92 97 99 116 117 124 119 94 100 105 102 100 96 100 99 96 102 90 72 88 100 100
134 140 149 152 150 148 149 150 149 154 153 152 151 150 150 149 149 146 146 142 139 134 129 125 121 120 121 121 123 124 126 125 122 126 136 143 144 138 139 134 136 145 150 163 168 176 184 205 204 143 138 124 127 125 117 111 116 120 110 107 102 95 89 90 89 91 114 109 107 124 103 101 112 105 106 109 101 102 106 101 88 80 100 110 108
128 135 143 145 146 146 148 148 144 149 152 155 153 153 153 151 151 149 148 144 140 134 127 122 117 117 116 117 117 119 123 125 127 127 129 136 140 134 136 140 137 139 143 159 172 178 195 214 157 136 138 131 129 123 116 117 121 121 115 111 103 96 92 88 84 91 115 104 79 94 102 90 103 105 102 107 106 115 113 103 92 96 114 118 120
127 129 137 141 146 148 149 147 144 147 150 158 158 157 155 152 153 152 150 147 142 134 126 119 114 112 111 111 110 113 118 125 127 122 119 122 128 131 137 140 133 140 156 173 177 172 187 185 153 138 136 133 126 122 121 123 125 123 116 110 103 96 94 92 90 93 112 113 75 85 105 92 102 104 93 100 112 126 116 105 102 117 127 122 124
128 131 135 139 147 151 150 148 146 146 147 153 157 158 157 154 156 156 153 149 143 134 125 118 113 110 108 107 105 107 112 123 126 122 123 125 132 135 126 118 126 156 178 192 200 188 162 146 142 138 134 129 126 129 130 131 131 125 116 108 102 94 93 94 96 92 86 91 88 80 95 96 106 109 94 99 105 110 114 120 131 137 135 122 111
129 133 135 140 149 152 149 147 145 144 144 145 148 151 152 154 156 154 149 145 139 131 122 116 112 109 106 105 105 108 108 114 122 128 134 135 138 132 109 103 125 157 178 195 193 163 139 132 132 133 130 129 132 138 141 140 135 126 115 105 96 85 81 84 95 96 83 86 97 82 88 97 104 117 103 109 117 93 108 134 143 130 134 130 111
129 132 132 138 147 153 150 146 144 145 145 144 145 145 144 148 151 149 143 138 135 129 123 116 113 109 108 110 112 114 107 106 118 125 129 125 121 118 103 98 103 106 127 150 147 138 130 128 129 129 130 135 143 146 148 146 136 127 112 99 85 70 51 58 81 89 90 93 98 90 107 115 107 121 109 120 139 108 125 159 149 143 151 150 137
129 130 131 138 147 153 151 145 145 147 147 147 147 146 145 143 146 149 146 142 138 134 128 122 118 114 116 118 124 123 112 119 135 129 121 106 97 106 103 98 92 88 106 132 131 129 127 127 129 129 134 146 150 150 152 147 136 126 109 91 67 47 23 33 69 74 91 99 102 110 129 132 121 129 108 130 152 156 169 187 197 212 212 155 145
132 131 134 140 147 152 151 148 148 150 149 150 150 150 151 149 148 151 155 153 148 144 138 133 129 126 128 128 133 133 123 134 147 144 130 107 98 107 106 106 96 88 106 128 125 124 125 125 127 128 134 148 151 150 150 142 132 121 100 80 45 17 0 8 26 17 44 75 111 131 149 146 144 178 218 147 164 175 174 168 176 184 156 151 146
136 135 138 141 151 157 156 153 152 153 153 154 154 154 155 154 152 152 158 159 155 151 148 143 140 137 137 136 139 142 139 146 154 154 148 134 128 126 112 107 102 98 112 132 131 127 128 126 127 126 130 142 145 143 143 134 123 111 87 62 20 1 349 352 330 313 11 21 323 186 187 162 168 211 209 160 171 174 172 161 148 143 152 156 147
140 140 143 144 153 160 159 156 153 153 155 157 157 157 157 156 154 154 158 160 158 155 152 148 148 146 144 143 141 144 146 150 158 160 163 160 149 128 112 113 111 106 113 137 142 133 132 131 129 126 131 138 139 138 139 133 122 113 93 43 2 352 348 345 319 306 352 354 330 227 207 170 192 222 200 177 179 177 179 168 160 155 163 169 156
139 140 142 144 149 154 156 155 153 154 156 158 157 158 157 157 156 156 158 159 158 155 152 149 151 153 150 147 140 142 145 141 154 164 172 175 168 141 122 119 114 111 116 132 142 139 138 138 136 135 137 140 143 144 145 142 134 133 135 34 348 341 343 329 307 335 1 359 6 274 187 181 214 221 199 191 182 180 182 172 175 171 174 179 170
132 133 133 138 140 143 149 152 154 156 157 157 156 156 157 159 158 158 158 155 156 154 150 148 152 157 155 151 145 144 144 133 141 158 174 183 184 175 155 135 121 117 122 126 133 143 146 145 146 146 147 148 152 156 159 154 151 155 161 215 317 318 320 304 304 330 342 354 8 31 118 183 223 214 197 198 184 180 183 181 187 177 178 179 170
131 130 130 133 135 139 143 151 155 154 156 156 155 157 159 160 157 156 154 152 154 152 149 148 148 155 158 155 152 149 146 138 132 143 162 173 180 188 184 167 148 138 134 130 132 141 144 146 153 157 156 155 160 167 171 164 162 163 166 207 290 299 298 305 308 314 319 344 356 34 83 182 213 205 196 193 179 180 188 191 189 181 186 179 171
135 135 137 138 142 146 147 153 155 155 154 153 154 156 158 158 155 152 149 149 152 151 147 146 141 146 155 155 155 155 154 149 140 142 146 154 167 185 189 188 181 167 159 154 153 149 145 149 153 159 162 161 168 176 177 173 168 170 179 205 257 286 301 314 307 305 325 350 359 46 72 200 203 197 194 186 174 181 193 192 189 189 188 183 183
139 141 144 146 151 153 154 158 157 160 158 156 157 153 152 154 155 152 150 151 152 155 152 148 142 141 146 151 156 157 162 161 151 148 149 153 147 161 193 196 197 192 179 177 184 179 166 164 159 157 165 167 174 184 184 180 175 179 188 211 242 282 312 314 299 309 341 4 42 60 307 209 195 191 191 182 174 185 197 192 191 191 187 187 194
144 148 151 153 157 157 158 160 160 162 159 158 157 154 153 152 156 156 156 156 157 161 161 158 151 148 146 148 156 158 171 178 172 165 163 157 141 157 207 201 201 211 208 207 205 197 190 184 178 168 170 175 182 191 191 186 184 187 198 217 241 286 304 297 295 317 349 11 74 84 264 210 190 191 189 175 171 186 196 195 192 188 189 191 198
150 154 157 157 159 162 163 162 162 161 158 157 156 158 160 158 161 161 164 164 164 168 167 167 162 161 158 156 161 167 181 192 196 192 188 185 173 182 202 193 198 212 217 222 220 213 211 206 200 185 181 187 190 197 197 193 192 195 206 217 239 264 272 286 295 314 345 7 84 108 265 211 192 193 182 168 175 191 194 196 194 191 192 193 201
154 157 159 160 161 167 171 166 164 162 158 157 157 164 166 166 167 165 169 170 170 171 170 174 176 176 173 171 174 182 188 190 196 198 198 199 209 217 195 189 196 204 212 213 210 215 219 220 215 201 196 195 194 201 202 202 204 206 213 219 231 246 262 283 279 291 337 13 72 329 280 206 197 196 181 175 190 197 196 196 195 196 194 197 207
156 157 159 164 167 172 176 171 166 164 160 160 162 167 170 173 173 170 171 173 174 176 178 181 185 187 184 182 184 190 188 187 196 201 205 200 216 232 212 206 201 204 219 211 204 212 214 217 218 214 209 202 203 210 210 207 209 211 216 220 226 237 257 269 264 264 309 40 79 330 299 213 202 197 188 189 199 199 199 196 192 194 194 202 209
157 155 159 169 173 173 174 172 167 163 164 164 167 172 175 178 179 176 172 173 176 178 183 184 189 192 187 189 190 189 187 189 200 206 210 209 225 237 227 225 220 217 230 225 214 222 220 215 220 225 220 215 216 219 218 212 209 210 211 215 223 236 249 251 250 248 270 66 148 299 317 227 206 203 197 196 200 198 200 194 189 194 198 207 209
155 154 161 171 174 174 173 172 165 163 166 169 173 177 180 182 183 182 177 175 176 180 184 184 187 191 191 195 192 190 195 194 194 198 206 218 233 246 242 235 232 227 232 229 219 218 218 214 220 226 224 223 223 221 223 220 214 212 213 217 224 237 242 240 239 246 264 173 204 286 320 279 220 208 203 200 200 197 200 195 192 199 200 206 211
154 155 161 165 171 179 176 171 168 166 169 174 179 181 184 186 184 184 184 182 180 181 185 188 188 189 193 197 196 196 203 204 199 198 203 217 230 244 249 245 242 236 225 222 224 220 217 216 215 220 223 226 226 225 226 226 224 219 216 219 225 236 239 238 236 241 250 216 228 288 305 281 246 212 205 202 197 197 202 198 196 202 204 208 213
151 150 152 154 168 184 179 173 174 173 171 175 179 183 187 189 187 187 189 188 184 185 187 191 190 191 196 197 202 205 204 207 208 208 207 214 222 233 244 249 254 253 239 229 233 230 227 227 221 221 224 227 228 228 228 226 228 226 222 222 228 236 238 241 239 242 249 220 234 274 291 268 247 219 208 202 194 196 202 201 200 204 207 210 213
141 141 143 146 163 182 184 182 180 177 173 173 174 180 189 192 194 195 196 194 187 188 192 193 191 194 200 200 205 212 210 209 211 214 212 214 219 224 233 242 248 255 254 246 243 237 234 236 231 227 224 226 228 228 230 227 225 228 230 229 230 233 235 240 241 244 247 226 225 255 276 261 239 226 214 208 196 194 202 207 205 204 209 209 213
137 138 140 140 156 176 185 189 182 177 175 173 175 173 183 192 198 202 202 201 197 194 193 194 196 198 203 204 206 213 215 214 214 217 219 220 220 221 226 232 237 244 249 247 246 243 239 239 239 235 227 227 228 226 230 229 223 224 229 231 230 232 232 233 238 238 236 230 220 241 266 261 230 230 222 213 204 196 201 212 211 205 211 211 213
132 134 137 135 153 176 184 192 185 178 180 178 178 168 176 193 199 204 204 203 205 202 197 200 203 204 207 208 208 214 219 218 220 221 225 230 228 225 226 229 233 236 240 242 244 242 238 238 239 239 233 228 226 224 224 227 224 221 226 230 229 231 232 231 235 235 228 229 222 238 267 264 229 229 231 217 209 204 200 209 212 207 212 212 213
129 130 127 122 136 165 179 190 183 178 185 183 182 174 176 197 204 207 206 205 206 203 204 208 209 213 215 214 214 219 223 221 227 232 233 238 237 236 231 230 233 233 236 238 239 237 236 237 237 239 239 235 232 226 223 226 224 220 221 224 226 228 230 232 235 236 232 231 227 232 259 264 238 224 229 223 214 212 204 205 212 210 210 211 212
125 124 118 114 125 152 169 179 175 173 179 179 184 193 182 186 212 220 213 209 211 209 211 212 212 218 221 221 222 227 232 228 229 234 238 242 241 242 242 238 238 237 237 238 238 236 236 238 239 240 243 244 242 236 232 232 229 223 219 218 221 223 223 229 232 233 233 235 238 235 240 248 243 228 222 224 221 219 210 204 209 213 210 210 214
120 121 122 118 126 147 156 161 165 165 173 176 177 196 199 191 213 229 222 212 222 225 220 221 221 222 224 226 228 232 239 240 239 238 238 240 239 240 243 245 248 248 246 245 243 240 238 240 240 241 243 245 245 241 238 239 235 228 223 219 218 219 220 227 230 229 231 235 239 242 234 224 229 231 221 221 225 224 217 205 206 212 212 210 213
123 124 124 121 127 140 148 151 157 161 171 174 162 179 208 212 217 233 235 219 225 235 231 232 233 232 232 230 233 235 239 245 249 248 244 242 241 240 241 244 247 252 255 253 250 245 242 242 241 241 242 243 243 240 237 240 239 230 226 225 221 219 219 224 228 228 230 235 238 244 243 219 210 218 219 222 227 226 222 212 206 211 214 212 212
124 123 120 119 124 134 139 140 145 150 157 157 150 153 166 196 213 230 246 239 239 247 247 246 244 244 242 238 239 239 241 246 251 256 258 254 249 244 241 243 244 245 251 254 255 251 247 246 244 242 243 243 242 241 238 239 242 236 227 225 226 223 220 222 224 226 230 233 238 242 241 222 205 206 208 215 225 227 226 220 213 212 213 215 216
123 122 118 117 120 123 125 127 133 140 142 143 142 138 138 153 181 205 232 251 255 257 261 259 256 255 252 250 248 245 247 250 251 256 262 264 259 251 245 245 246 244 244 249 256 257 253 250 248 246 247 246 244 243 240 240 244 243 234 228 231 228 224 222 219 223 229 231 236 240 234 219 207 202 203 208 219 230 230 225 221 215 213 216 219
120 118 117 117 118 119 121 124 128 130 130 129 128 128 130 133 145 182 208 233 247 253 259 260 260 260 258 259 255 251 253 255 255 255 259 264 264 260 253 247 250 252 247 246 252 256 257 256 254 252 252 252 251 248 244 243 243 243 239 235 234 231 229 227 220 220 226 230 232 234 230 216 205 201 202 209 217 225 229 227 225 221 216 217 219
113 113 116 118 117 117 116 115 115 116 118 119 117 118 119 119 125 143 195 233 240 244 250 255 258 258 257 260 259 257 259 262 264 261 260 264 264 263 261 251 252 257 252 247 247 249 255 258 257 254 253 255 257 253 248 248 247 245 242 240 237 233 233 232 224 220 224 229 229 228 227 213 202 203 202 207 214 213 214 221 227 226 224 221 219
111 112 114 115 116 117 113 108 105 102 99 97 97 101 104 101 98 101 127 254 264 258 254 255 260 263 262 262 265 266 263 265 266 262 260 262 263 261 259 256 254 253 250 251 251 249 251 253 252 254 255 255 256 255 253 252 252 248 246 246 242 236 236 237 231 225 224 229 230 225 222 214 204 204 204 205 213 211 207 215 222 221 225 227 223
110 112 114 115 116 116 112 106 101 96 88 84 89 95 94 89 85 85 64 15 306 281 267 261 262 268 272 271 272 272 269 269 265 263 263 263 264 258 254 255 254 252 252 255 260 257 256 255 251 251 253 255 254 251 249 251 252 249 246 247 245 239 238 242 239 232 226 225 228 226 221 216 206 201 205 208 211 211 208 213 217 216 221 226 226
107 109 111 112 113 112 107 99 94 94 91 85 86 88 84 81 73 47 357 335 311 294 283 279 278 279 284 283 278 276 273 272 268 266 267 265 265 260 255 254 253 255 256 255 261 262 263 265 259 251 248 249 251 246 243 248 249 243 239 242 242 238 238 242 241 236 231 224 222 224 221 215 205 200 205 208 206 206 208 210 217 223 222 217 219
107 109 109 110 110 107 99 93 90 86 83 81 80 76 70 68 49 345 320 317 311 302 295 296 294 288 290 291 287 284 279 277 275 273 272 268 266 264 260 258 257 259 257 256 259 255 254 261 262 255 245 240 245 243 236 237 241 240 237 239 236 233 233 239 242 236 230 224 219 219 218 212 206 202 201 204 204 204 208 212 219 228 228 221 215
110 111 110 111 107 101 94 91 90 83 77 78 80 77 69 68 60 351 327 325 311 307 306 305 304 300 298 299 296 291 287 284 283 280 277 272 269 268 266 265 265 264 261 261 263 257 251 254 259 256 247 239 242 242 233 226 235 244 244 243 234 226 225 228 236 237 229 221 217 215 213 210 207 203 201 203 207 208 208 212 220 225 227 231 221
111 111 111 108 99 96 95 92 91 85 80 80 82 82 75 72 68 56 50 32 331 326 325 316 316 317 312 310 310 308 305 297 291 286 282 280 279 276 273 272 271 269 265 259 260 259 254 252 254 253 249 244 240 238 232 225 230 237 239 243 234 226 225 216 223 229 225 218 214 212 210 210 208 202 201 206 209 212 213 212 216 221 226 231 230
105 103 102 99 95 94 92 89 87 82 77 77 78 77 71 63 55 49 51 52 37 11 356 339 328 322 316 312 309 307 304 298 293 289 284 283 284 280 275 274 272 270 265 255 253 257 256 253 251 248 248 247 244 238 229 224 227 228 230 242 240 228 228 223 220 218 217 215 210 209 209 209 207 200 201 206 208 209 211 211 212 219 224 224 227
99 96 93 93 93 90 86 86 84 81 78 76 75 73 70 61 52 48 44 39 39 35 18 357 342 334 329 323 317 310 305 301 297 294 289 285 282 279 274 270 268 266 262 254 249 249 251 250 247 247 249 250 250 246 234 225 228 228 231 241 255 268 255 228 231 213 214 225 216 208 208 208 206 204 205 206 206 208 210 212 213 216 220 219 222
104 99 94 90 88 85 86 88 87 87 86 80 78 76 73 69 64 60 52 44 42 38 21 2 345 336 332 329 327 323 318 313 307 302 296 289 283 279 274 269 265 263 259 255 251 249 250 249 244 245 251 251 247 248 243 232 231 232 231 238 251 263 263 234 239 224 206 239 223 209 207 208 210 210 210 208 206 210 211 213 216 214 216 219 222
112 105 97 90 89 90 93 97 97 97 92 85 82 81 81 80 76 73 66 58 51 39 18 7 352 338 334 330 327 324 322 319 314 309 304 297 291 286 281 276 272 268 262 258 257 256 256 254 249 245 249 250 244 245 244 233 232 237 232 232 240 249 249 240 245 250 230 217 209 209 209 208 211 212 211 211 210 214 216 217 219 217 217 219 219
112 105 102 100 103 108 111 112 111 105 96 89 87 88 90 88 81 77 71 63 53 37 16 7 359 347 340 336 333 327 323 319 313 310 307 304 302 297 292 286 280 276 270 264 261 261 260 258 254 249 246 249 246 245 244 235 233 239 235 228 231 241 245 240 239 246 250 235 207 207 210 204 208 211 209 208 208 214 220 221 222 221 219 216 214
112 110 114 122 131 136 135 127 119 107 97 93 93 92 91 88 84 81 76 68 56 29 1 349 346 341 332 331 332 331 328 324 318 313 308 306 306 304 301 295 289 283 276 270 266 264 262 259 257 254 249 250 248 244 244 240 235 238 237 231 229 232 238 240 232 219 234 252 236 204 199 199 204 205 202 202 204 208 216 219 221 221 219 215 212
125 129 136 143 144 139 131 118 104 97 92 91 93 92 90 90 88 87 75 56 35 0 339 327 324 321 315 314 314 315 316 318 319 316 313 310 307 306 304 300 296 289 280 274 270 266 262 260 258 257 253 251 249 246 245 242 238 238 237 232 231 229 229 235 233 218 213 236 238 209 195 198 205 206 198 195 199 204 209 214 219 220 218 214 210